This is the latest recevied weather packets stored in our database for station/object OE5RBO. If no packets are shown the sender has not sent any weather packets the latest 10 day(s).
| Time | Temp. | Humidity | Pressure | Rain* | Wind** | Luminosity | Snow |
|---|---|---|---|---|---|---|---|
| 1788614805 | 20° C | 86% | 1023.2 hPa | 6.86 mm | - | - | - |
| 1788614204 | 20° C | 86% | 1023.1 hPa | 6.86 mm | - | - | - |
| 1788613604 | 20° C | 88% | 1023.2 hPa | 6.86 mm | - | - | - |
| 1788611803 | 19.44° C | 86% | 1023.4 hPa | 6.86 mm | - | - | - |
| 1788610602 | 19.44° C | 84% | 1023.4 hPa | 6.86 mm | - | - | - |
| 1788610001 | 20° C | 85% | 1023.2 hPa | 6.86 mm | - | - | - |
| 1788608801 | 20° C | 84% | 1023.4 hPa | 6.86 mm | - | - | - |
| 1788607600 | 20° C | 87% | 1023.2 hPa | 6.86 mm | - | - | - |
| 1788606399 | 19.44° C | 93% | 1023.5 hPa | 6.86 mm | - | - | - |
| 1788605799 | 20° C | 87% | 1023.5 hPa | 6.86 mm | - | - | - |
| 1788605198 | 21.11° C | 86% | 1023.2 hPa | 6.86 mm | - | - | - |
| 1788604599 | 20.56° C | 85% | 1023.2 hPa | 6.86 mm | - | - | - |
| 1788603998 | 20° C | 87% | 1023.1 hPa | 6.86 mm | - | - | - |
| 1788603398 | 19.44° C | 93% | 1023 hPa | 6.86 mm | - | - | - |
| 1788602797 | 18.89° C | 96% | 1023.1 hPa | 6.86 mm | - | - | - |
| 1788602197 | 18.33° C | 95% | 1023.1 hPa | 6.86 mm | - | - | - |
| 1788601596 | 17.78° C | 95% | 1023 hPa | 6.86 mm | - | - | - |
| 1788600996 | 17.78° C | 96% | 1023 hPa | 6.86 mm | - | - | - |
| 1788600395 | 17.78° C | 96% | 1023 hPa | 6.86 mm | - | - | - |
| 1788599795 | 17.22° C | 97% | 1023.1 hPa | 6.86 mm | - | - | - |
| 1788599195 | 16.67° C | 97% | 1022.9 hPa | 6.86 mm | - | - | - |
| 1788598594 | 16.11° C | 98% | 1022.8 hPa | 6.86 mm | - | - | - |
| 1788597994 | 15.56° C | 98% | 1022.7 hPa | 6.86 mm | - | - | - |
| 1788597394 | 15° C | 99% | 1022.8 hPa | 6.86 mm | - | - | - |
| 1788596794 | 14.44° C | 100% | 1023 hPa | 6.86 mm | - | - | - |
* Rain since midnight (hover to see other rain measurements)
** Current wind speed in m/s (hover to see current wind gust speed)